Regional Weather Roundup
Issued by NWS

Home | Current Version | Previous Version | Text Only | Print | Product List | Glossary Off
Versions: 1 2 3 4 5 6 7 8 9 10 11 12 13 14 15 16 17 18 19 20 21 22 23 24 25 26 27 28 29 30 31 32 33 34 35 36 37 38 39 40 41 42 43 44 45 46 47 48 49 50

000
ASUS43 KOAX 290210
RWRNE

WEATHER ROUNDUP FOR NEBRASKA
NATIONAL WEATHER SERVICE OMAHA NE
800 PM CST SUN DEC 28 2014

NOTES: SATELLITE DATA IS BEING USED TO AUGMENT CLOUD COVER ABOVE
       12000 FEET.
       "FAIR" INDICATES FEW OR NO CLOUDS BELOW 12,000 FEET WITH NO
       SIGNIFICANT WEATHER AND/OR OBSTRUCTIONS TO VISIBILITY.

  * THESE STATIONS DO NOT REPORT WEATHER SUCH AS RAIN...SNOW OR FOG.

NEZ001>004-019>022-054>056-290300-
NEBRASKA PANHANDLE

CITY           SKY/WX    TMP DP  RH WIND       PRES   REMARKS
SCOTTSBLUFF    CLOUDY    19  12  74 E7        29.95R WCI  10
ALLIANCE       CLOUDY    18  16  92 CALM      29.95R
CHADRON        LGT SNOW  22  19  89 NE9       30.01R FOG     WCI  12
KIMBALL        FLURRIES  27  20  72 NW12      29.90R WCI  17
SIDNEY         MOCLDY    11   3  70 SW7       29.94R WCI   0
$$

NEZ057>060-069>072-079>082-290300-
SOUTHWEST NEBRASKA

CITY           SKY/WX    TMP DP  RH WIND       PRES   REMARKS
NORTH PLATTE   CLOUDY    21  14  74 E5        30.03R WCI  15
IMPERIAL       CLEAR     12   8  84 S7        29.98S WCI   1
LEXINGTON      MOCLDY    22  18  83 CALM      30.07R
MCCOOK         MOCLDY    19  13  77 E3        30.05R
OGALLALA       PTCLDY    13  10  89 CALM      29.99R
$$

NEZ005>010-023>029-035>040-094-290300-
NORTH CENTRAL NEBRASKA

CITY           SKY/WX    TMP DP  RH WIND       PRES   REMARKS
VALENTINE      LGT SNOW  20  17  88 NE10      30.09R VSB 1   WCI   9
AINSWORTH      LGT SNOW  19  16  89 E7        30.09R WCI   9
BROKEN BOW     CLOUDY    23  16  74 CALM      30.06R
O`NEILL        CLOUDY    19  17  93 NE8       30.14R WCI   8
ORD            CLOUDY    22  16  78 NE3       30.09R
THEDFORD       CLOUDY    23  18  83 CALM      30.04R
$$

NEZ041-046>049-061>064-073>077-083>087-290300-
SOUTH CENTRAL NEBRASKA

CITY           SKY/WX    TMP DP  RH WIND       PRES   REMARKS
GRAND ISLAND   CLOUDY    22  17  81 E6        30.11R WCI  14
AURORA         CLOUDY    25  19  80 E8        30.10S WCI  16
HASTINGS       CLOUDY    26  19  74 E8        30.07S WCI  18
HEBRON         CLOUDY    29  23  78 CALM      30.12R
HOLDREGE       CLOUDY    22  17  81 CALM      30.07R
KEARNEY *      CLOUDY    21  16  79 CALM      30.08R
YORK           CLOUDY    25  19  80 NE6       30.13R WCI  18
$$

NEZ011>018-030>034-042>045-290300-
NORTHEAST NEBRASKA

CITY           SKY/WX    TMP DP  RH WIND       PRES   REMARKS
NORFOLK        CLOUDY    19  14  81 NE6       30.16R WCI  11
ALBION         CLOUDY    18  13  82 CALM      30.13S
BLAIR          CLOUDY    26  21  83 N9        30.15R WCI  16
COLUMBUS *     MOCLDY    19  12  73 NE8       30.15S WCI   9
FREMONT        CLOUDY    25  19  78 CALM      30.17R
TEKAMAH        CLOUDY    23  18  81 N10       30.19R WCI  12
WAYNE          CLOUDY    20  16  85 NE8       30.19R WCI  10
$$

NEZ050>053-065>068-078-088>093-290300-
SOUTHEAST NEBRASKA

CITY           SKY/WX    TMP DP  RH WIND       PRES   REMARKS
LINCOLN        CLOUDY    29  22  75 N8        30.16R WCI  21
OMAHA EPPLEY   CLOUDY    27  22  81 N8        30.18R WCI  19
BEATRICE       CLOUDY    31  24  75 CALM      30.12S
FALLS CITY     CLOUDY    34  20  56 S3        30.15R
NEBRASKA CITY  CLOUDY    31  23  71 NE3       30.14S
PLATTSMOUTH    CLOUDY    30  23  75 N5        30.15R WCI  25
$$

NEZ044-045-051>053-067-290300-
OMAHA AREA

CITY           SKY/WX    TMP DP  RH WIND       PRES   REMARKS
OMAHA EPPLEY   CLOUDY    27  22  81 N8        30.18R WCI  19
BLAIR          CLOUDY    26  21  83 N9        30.15R WCI  16
FREMONT        CLOUDY    25  19  78 CALM      30.17R
MILLARD        CLOUDY    28  20  71 CALM      30.16R
OFFUTT AFB     CLOUDY    28  22  78 N7        30.15R WCI  21
PLATTSMOUTH    CLOUDY    30  23  75 N5        30.15R WCI  25
WAHOO          FAIR      24  19  81 N5        30.16R WCI  19
$$


USA.gov is the U.S. government's official web portal to all federal, state and local government web resources and services.